RH
56 59 51 53 44 37 41 41 43 50 59 59 55 43 41 46 52 58 62 67 72 66 68 66 77 77 80 77 85 88 82 69 63 58 47 38 28 22 23 23 22 19 18 15 16 20 22 26 22 30 29 29 29 30
54 56 53 60 41 43 48 42 52 60 64 57 42 40 43 48 56 65 69 74 76 78 72 72 70 75 79 76 83 91 87 87 75 66 54 44 35 29 25 27 27 22 15 13 12 15 18 21 21 25 28 29 33 32
49 49 57 54 43 49 45 46 59 67 66 48 39 42 49 55 63 70 80 83 82 80 77 74 71 81 74 84 74 90 92 86 82 77 70 60 54 44 30 27 28 23 20 14 16 15 14 17 21 21 27 30 29 32
56 53 62 50 48 50 46 56 67 73 67 41 40 46 52 58 63 74 92 94 94 96 95 92 89 80 76 70 67 82 93 92 93 80 69 58 45 38 41 36 31 30 24 19 17 16 14 14 17 18 23 25 24 29
48 62 62 48 54 52 54 65 74 82 75 39 39 47 57 62 73 85 89 93 97 98 97 91 88 88 76 71 66 78 88 89 93 83 69 58 49 43 33 42 35 29 25 20 16 15 12 13 13 18 21 24 24 28
62 61 55 50 56 52 61 72 79 84 84 49 43 48 61 71 77 87 87 94 98 98 98 98 90 85 77 74 76 79 84 85 87 87 70 58 51 47 39 40 35 34 27 25 20 20 17 11 13 19 20 24 26 26
61 61 54 57 57 54 65 73 81 86 89 59 52 50 64 71 75 82 83 88 93 98 98 97 93 89 88 83 87 86 83 89 85 88 78 61 57 53 42 45 53 36 28 25 24 20 17 12 14 17 23 24 26 29
62 64 55 62 57 58 67 76 82 88 91 69 50 45 56 65 70 68 72 85 94 97 98 98 94 96 95 94 97 98 96 89 90 86 73 68 63 54 50 46 45 37 30 26 25 22 17 15 15 17 20 27 31 31
64 67 57 66 55 59 65 73 83 88 94 83 43 39 53 64 75 74 81 88 95 97 97 95 97 95 94 94 94 92 93 97 91 81 72 70 66 58 56 47 41 42 37 31 26 22 18 17 17 21 21 23 27 36
65 67 60 66 53 56 62 75 82 87 93 89 39 47 60 64 68 73 79 86 91 96 96 98 95 91 94 96 94 89 87 88 80 84 81 69 62 57 55 50 47 46 41 34 29 24 22 20 21 21 21 26 29 35
67 60 69 62 52 54 62 68 71 82 90 93 52 41 52 51 63 74 82 83 87 85 90 95 93 90 91 92 88 87 85 85 84 77 75 68 61 62 60 56 48 45 40 36 33 28 26 27 28 27 29 31 32 36
65 60 68 62 52 55 62 63 68 84 93 97 76 40 44 52 59 65 72 74 75 80 91 92 94 95 93 93 97 88 90 84 82 75 70 70 72 73 67 53 47 47 45 44 41 35 34 33 30 30 29 31 32 33
56 70 68 61 52 55 60 59 67 85 95 97 84 43 44 49 53 50 60 67 71 81 90 92 93 95 95 94 95 91 91 86 82 80 77 76 81 79 67 57 53 50 50 51 49 43 41 37 34 30 28 28 28 32
62 80 67 60 52 56 58 58 66 82 95 97 89 62 37 38 39 43 50 60 66 71 87 86 90 97 93 92 93 93 87 83 84 90 92 81 83 77 67 61 58 55 53 50 51 50 43 39 37 35 33 32 30 31
76 74 63 60 53 55 54 58 69 82 95 98 96 80 49 31 35 42 47 56 63 67 75 83 84 87 88 87 83 86 90 90 87 90 91 88 84 79 72 63 58 55 55 50 44 44 44 44 43 42 40 40 37 41
75 73 61 60 53 53 54 64 76 86 94 98 97 85 75 64 53 41 44 54 65 63 61 66 70 70 75 78 80 81 82 80 90 97 88 87 77 74 76 70 65 60 58 51 46 42 40 42 44 49 44 46 47 49
79 71 62 61 52 52 60 72 80 87 94 96 97 96 93 91 84 62 39 47 56 63 63 64 64 64 62 65 69 73 74 82 92 90 85 87 78 69 63 67 70 70 67 59 53 50 46 44 44 46 48 51 52 54
74 62 61 56 53 59 68 77 82 88 91 96 97 97 97 95 93 88 70 41 46 55 62 63 59 64 60 50 51 62 74 86 87 85 81 77 74 75 74 67 68 69 67 68 63 58 53 50 47 46 46 51 53 54
67 55 54 55 61 62 75 80 85 90 88 93 98 98 98 98 97 96 93 82 51 46 54 58 56 50 48 49 48 49 72 75 79 82 79 78 77 78 82 75 63 59 65 63 61 56 52 49 51 49 45 46 48 52
70 58 61 61 61 67 80 83 88 88 90 97 98 98 98 98 98 99 99 97 93 82 53 43 43 45 48 47 41 40 71 73 67 66 70 68 66 69 71 71 67 63 61 56 58 53 52 51 53 52 49 45 45 49
66 61 61 60 63 78 82 86 90 94 98 99 98 99 98 98 97 97 96 96 94 92 86 66 50 39 40 42 43 40 49 71 70 65 62 62 60 56 57 55 56 59 57 54 51 50 49 48 47 50 50 49 49 47
76 68 62 63 79 82 87 89 94 97 98 98 99 98 98 98 98 98 97 94 90 86 83 80 72 58 54 47 38 37 46 51 59 58 55 50 51 48 44 44 49 48 47 46 45 47 47 46 45 44 45 44 43 44
62 56 60 81 86 88 90 96 99 98 98 97 98 97 97 98 98 99 98 98 96 94 92 91 88 83 70 55 49 41 36 46 47 43 39 36 35 37 37 34 31 30 31 36 38 33 38 38 39 39 41 40 40 41
57 63 78 89 91 93 92 96 98 98 98 98 96 97 96 97 98 99 98 98 95 97 97 96 96 92 86 78 56 47 42 38 38 38 36 35 33 33 31 31 30 27 26 25 25 32 36 35 33 34 36 37 35 36
64 71 85 93 94 93 93 97 98 98 98 97 97 96 98 98 98 96 97 96 90 94 93 95 97 95 91 87 75 59 50 46 41 36 34 33 31 32 30 27 26 26 24 21 26 31 33 35 36 38 37 38 38 38
72 79 89 92 93 93 98 98 98 98 98 98 97 98 98 95 94 97 98 97 93 86 87 80 83 83 84 83 78 65 54 46 42 39 37 35 33 34 30 32 34 29 31 39 41 40 40 40 39 42 42 42 44 44
74 87 92 92 92 96 98 97 98 98 98 98 98 96 94 93 94 96 96 97 93 88 79 79 70 64 63 62 60 56 51 45 43 43 41 39 38 36 34 35 38 41 51 54 53 52 52 51 49 48 48 49 51 51
73 86 94 93 94 98 98 98 98 97 98 98 94 94 95 95 96 95 92 95 96 96 89 82 74 68 65 60 58 53 49 46 44 41 39 37 35 36 38 44 53 60 62 67 65 66 66 63 61 62 62 62 62 65
80 89 92 96 96 98 97 96 97 98 96 93 91 89 88 92 91 87 85 90 89 90 88 86 91 92 78 72 64 58 54 49 45 44 44 45 46 52 56 60 75 77 76 76 75 76 76 72 73 73 73 73 73 76
80 89 92 94 96 93 95 96 98 97 96 89 87 88 86 84 81 82 85 88 86 84 82 87 89 88 86 90 85 78 77 83 89 87 78 77 74 83 75 77 80 83 84 81 84 83 79 77 78 80 83 86 87 87
89 95 96 95 93 91 95 97 97 96 91 90 89 90 85 84 80 73 76 77 75 74 71 68 69 73 80 84 89 93 94 92 94 96 98 93 88 89 82 78 77 89 94 93 91 89 87 83 79 77 77 78 78 77
90 94 98 93 94 92 93 95 96 95 95 92 92 92 88 76 77 74 70 70 66 64 59 56 53 56 54 48 58 67 68 76 79 84 87 89 90 87 86 86 84 83 81 87 91 90 87 86 85 81 77 71 68 68
93 93 92 91 89 92 92 94 94 98 97 96 93 93 92 83 83 82 74 66 61 56 51 49 49 49 48 47 42 37 38 44 45 47 51 54 53 53 54 54 54 54 54 55 62 68 71 72 71 69 68 66 65 64